Pensacola International Airport

Airport
ICAO code: 
KPNS
Summary
ICAO Region: 
NAM
Territory: 
Location: 
Pensacola, Florida,
Coordinates: 
Aerial View: 
30° 28' 19.829" N, 87° 11' 16.648" W
Metar
Observation
KPNS 040710Z AUTO 00000KT 1/4SM R17/1200V1800FT FG VV002 14/14 A3009 RMK AO2 T01440139
Station
Pensacola, Pensacola Regional Airport
Date/Time
2021-12-04 07:10:00
Wind direction
Wind speed
00 kts
Lowest cloud amount
n/a
Temperature
14.4°C
Dew point
13.9°C
Humidity
96%
Weather condition
fog

Description

Pensacola International Airport, formerly known as Pensacola Gulf Coast Regional Airport, is a public airport located 4.83 km northeast of the city of Pensacola in Escambia County, Florida.

Climatology

Humid “subtropical” climate (Köppen climate classification Cfa) - characterized by hot, humid summers and cool winters. Significant amounts of precipitation occur in all seasons in most areas. Winter rainfall (and sometimes snowfall) is associated with large storms that the westerlies steer from west to east. Most summer rainfall occurs during thunderstorms and occasional tropical storms (hurricanes).

Runways

Designator Length Width Surface Rops
8/26 2134 46 ASP Yes/Yes
17/35 2135 46 ASP Yes/Yes
Airport map: 
Aerial View: 

SKYbrary Partners:

Safety knowledge contributed by: